Location: Fernhill
(41.0167°S, 175.6333°E)
Time: 17:16:54
(UTC+00:00)

Cosmos 1833 Rocket - Pass Details

Date: 19 February 2026
Orbit: 832 x 837 km, 71.0° (Epoch: 8 March)

Event Time Altitude Azimuth Distance (km) Brightness Sun altitude
Exits shadow 14:21:13 13° 229° (SW) 2,238 5.0 -32.0°
Maximum altitude 14:21:30 13° 226° (SW) 2,236 5.0 -32.0°
Drops below altitude 10° 14:24:12 10° 197° (SSW) 2,478 5.5 -31.7°
Sets 14:28:08 0° 170° (S) 3,421 6.8 -31.3°
